[[{"header":{"parameterUnit":"m.s-1","parameterCategory":2,"la1":30.2992,"la2":30.254,"lo1":-89.0895,"lo2":-89.0443,"dy":0.0025,"dx":0.0025,"nx":19,"ny":19,"refTime":"2026-05-04T21:00:00:Z","depth":"0","parameterNumber":2,"parameterNumberName":"U-component_of_CURRENTS"},"data":[0,0,0,-0.2005,-0.2005,-0.2015,-0.2015,-0.2001,-0.2001,0,0,0,0,0,0,0,0,0,0,0,-0.1993,-0.1993,-0.2005,-0.2005,-0.2015,-0.2015,-0.2001,-0.2001,0,0,0,0,0,0,0,0,0,0,0,-0.1993,-0.1993,-0.1993,-0.2005,-0.2015,-0.2015,-0.2001,-0.1999,0,0,0,0,0,0,0,0,0,0,-0.1992,-0.1983,-0.1993,-0.1993,-0.2005,-0.2015,-0.2015,-0.1999,-0.1999,-0.1992,0,-0.1991,0,-0.2002,-0.2,-0.2,0,0,0,-0.1999,-0.1983,-0.1992,-0.1993,-0.2006,-0.2015,-0.2009,-0.1999,-0.1999,-0.1992,-0.1991,-0.1991,-0.2002,-0.2,-0.2,-0.202,-0.2021,0,0,-0.1999,-0.1988,-0.1992,-0.1992,-0.2005,-0.2008,-0.2009,-0.2,-0.1994,-0.1991,-0.1991,-0.2002,-0.2,-0.2,-0.202,-0.202,0,0,0,-0.2001,-0.1988,-0.1997,-0.1992,-0.1999,-0.2009,-0.201,-0.1994,-0.1999,-0.1991,-0.2001,-0.2,-0.2,-0.202,-0.202,-0.2074,0,0,0,-0.2001,-0.199,-0.1997,-0.199,-0.2,-0.2,-0.2004,-0.1999,-0.1999,-0.2001,-0.2,-0.2,-0.2019,-0.202,-0.2071,-0.2108,0,0,0,-0.1993,-0.1989,-0.1991,-0.1989,-0.1998,-0.2001,-0.2005,-0.2,-0.2005,-0.2,-0.2,-0.2019,-0.202,-0.2069,-0.2104,-0.2,0,0,0,-0.1981,-0.1996,-0.199,-0.2012,-0.1998,-0.2033,-0.2005,-0.2022,-0.2022,-0.2,-0.2019,-0.202,-0.2069,-0.2102,-0.2,-0.1758,-0.1739,0,0,-0.2,-0.1998,-0.2015,-0.2011,-0.2049,-0.2031,-0.2069,-0.2053,-0.2029,-0.2018,-0.2019,-0.2072,-0.2104,-0.2,-0.1803,-0.1782,0,0,0,-0.2022,-0.2026,-0.2039,-0.2055,-0.2078,-0.2101,-0.2085,-0.2081,-0.2076,-0.2033,-0.2073,-0.2091,-0.2023,-0.1877,-0.1862,-0.1745,-0.2024,-0.2023,-0.2023,-0.2017,-0.204,-0.207,-0.2096,-0.2122,-0.2145,-0.2159,-0.2147,-0.2115,-0.2122,-0.2135,-0.21,-0.1949,-0.1933,-0.182,-0.2127,-0.2128,-0.2128,-0.2128,-0.2033,-0.2049,-0.2087,-0.2123,-0.2163,-0.2195,-0.2225,-0.2213,-0.2179,-0.2188,-0.2115,-0.1944,-0.1918,-0.1803,-0.2131,-0.2131,-0.213,-0.213,-0.213,-0.2007,-0.2026,-0.2053,-0.2124,-0.2186,-0.2235,-0.2225,-0.2268,-0.2216,-0.22,-0.192,-0.1916,-0.1804,-0.2113,-0.2113,-0.2112,-0.2112,-0.2112,-0.2112,-0.1974,-0.201,-0.2047,-0.2134,-0.2167,-0.2208,-0.2228,-0.2154,-0.2015,-0.1957,-0.1952,-0.1767,-0.2093,-0.2082,-0.2108,-0.2108,-0.2109,-0.2109,-0.211,-0.196,-0.1998,-0.2001,-0.2035,-0.2062,-0.1959,-0.2054,-0.1817,-0.1743,-0.1611,-0.1482,-0.1777,-0.1711,-0.172,-0.1699,-0.1624,-0.1624,-0.1624,-0.1624,-0.1967,-0.1985,-0.1896,-0.1837,-0.1818,-0.1786,-0.1497,-0.1403,-0.1269,-0.1155,-0.1225,-0.1188,-0.1213,-0.112,-0.1142,-0.111,-0.0888,-0.0887,-0.0886,-0.1992,-0.192,-0.1778,-0.1654,-0.162,-0.1469,-0.1156,-0.0941,-0.0792,-0.0858,-0.1118,-0.1149,-0.1107,-0.1155,-0.1022,-0.1063,-0.1015,0,0]},{"header":{"parameterUnit":"m.s-1","parameterCategory":2,"la1":30.2992,"la2":30.254,"lo1":-89.0895,"lo2":-89.0443,"dy":0.0025,"dx":0.0025,"nx":19,"ny":19,"refTime":"2026-05-04T21:00:00:Z","depth":"0","parameterNumber":3,"parameterNumberName":"V-component_of_CURRENTS"},"data":[0,0,0,-0.034,-0.0339,-0.0284,-0.0284,-0.0168,-0.0167,0,0,0,0,0,0,0,0,0,0,0,-0.0359,-0.0359,-0.034,-0.0339,-0.0284,-0.0284,-0.0168,-0.0167,0,0,0,0,0,0,0,0,0,0,0,-0.0359,-0.0359,-0.0358,-0.0339,-0.0284,-0.0284,-0.0168,-0.0218,0,0,0,0,0,0,0,0,0,0,-0.0276,-0.0308,-0.0359,-0.0358,-0.0339,-0.0284,-0.0284,-0.0221,-0.0215,-0.0184,0,-0.0183,0,-0.0176,-0.0159,-0.0159,0,0,0,-0.0327,-0.0314,-0.0297,-0.0358,-0.0338,-0.0284,-0.0306,-0.0218,-0.0211,-0.0176,-0.0182,-0.0178,-0.0174,-0.0159,-0.0158,-0.0065,-0.0065,0,0,-0.033,-0.0346,-0.0302,-0.0293,-0.0333,-0.0307,-0.0304,-0.0214,-0.0211,-0.0181,-0.0175,-0.0172,-0.0158,-0.0157,-0.0065,-0.0065,0,0,0,-0.0347,-0.0348,-0.0334,-0.0297,-0.0293,-0.0306,-0.0302,-0.0215,-0.0211,-0.0174,-0.0171,-0.0157,-0.0156,-0.0065,-0.0065,-0.0114,0,0,0,-0.0348,-0.0358,-0.0336,-0.0344,-0.0295,-0.0261,-0.0305,-0.0217,-0.0207,-0.0171,-0.0157,-0.0155,-0.0065,-0.0065,-0.0113,-0.0082,0,0,0,-0.036,-0.036,-0.0356,-0.0345,-0.0326,-0.0262,-0.0252,-0.0214,-0.0205,-0.0159,-0.0154,-0.0066,-0.0065,-0.0112,-0.0082,0.0086,0,0,0,-0.0372,-0.0398,-0.0357,-0.0382,-0.0327,-0.0314,-0.0253,-0.0235,-0.0204,-0.0156,-0.0065,-0.0065,-0.0112,-0.0082,0.0083,0.0191,0.0213,0,0,-0.0419,-0.0404,-0.042,-0.0382,-0.0392,-0.032,-0.0303,-0.0237,-0.018,-0.009,-0.0088,-0.0113,-0.0082,0.0086,0.0212,0.0233,0,0,0,-0.0444,-0.0452,-0.045,-0.0441,-0.041,-0.0348,-0.0291,-0.0236,-0.0153,-0.0161,-0.0092,-0.0068,0.0039,0.0097,0.0114,0.0242,-0.0063,-0.0063,-0.0063,-0.0516,-0.0498,-0.0515,-0.0482,-0.0457,-0.0367,-0.0296,-0.02,-0.0179,-0.0141,-0.0096,0.0019,0.0074,0.009,0.0217,-0.0107,-0.0108,-0.0108,-0.0108,-0.058,-0.0588,-0.0545,-0.0558,-0.0478,-0.044,-0.0283,-0.0231,-0.0051,-0.0096,0.001,0.0056,0.0106,0.0235,-0.0111,-0.011,-0.011,-0.0109,-0.0109,-0.0622,-0.0624,-0.0621,-0.0603,-0.0539,-0.0448,-0.0252,-0.0159,-0.0049,0.003,0.022,0.0222,0.0339,0.0112,0.0113,0.0114,0.0115,0.0115,0.0116,-0.0668,-0.0662,-0.0626,-0.063,-0.0554,-0.0426,-0.0202,-0.0032,0.0181,0.0243,0.0245,0.0405,0.0091,0.0086,0.0128,0.0126,0.0125,0.0123,0.0122,-0.0711,-0.069,-0.0603,-0.0535,-0.0365,-0.014,-0.0019,0.0305,0.0461,0.0587,0.068,0.0401,0.0474,0.046,0.0468,0.0608,0.0608,0.0608,0.0608,-0.0712,-0.0714,-0.0477,-0.0289,-0.0115,0.005,0.0433,0.0597,0.0805,0.0925,0.0949,0.0872,0.0847,0.0936,0.0912,0.0927,0.1181,0.1181,0.1182,-0.0699,-0.06,-0.0386,-0.0188,0.0043,0.0306,0.0679,0.0912,0.112,0.1214,0.1113,0.1089,0.0973,0.0924,0.1051,0.1007,0.1026,0,0]}],[{"header":{"parameterUnit":"m.s-1","parameterCategory":2,"la1":30.2992,"la2":30.254,"lo1":-89.0895,"lo2":-89.0443,"dy":0.0025,"dx":0.0025,"nx":19,"ny":19,"refTime":"2026-05-04T21:00:00:Z","depth":"2","parameterNumber":2,"parameterNumberName":"U-component_of_CURRENTS"},"data":[0,0,0,-0.1976,-0.1976,-0.1989,-0.1989,-0.1975,-0.1975,0,0,0,0,0,0,0,0,0,0,0,-0.1963,-0.1963,-0.1976,-0.1976,-0.1989,-0.1989,-0.1975,-0.1975,0,0,0,0,0,0,0,0,0,0,0,-0.1963,-0.1963,-0.1963,-0.1977,-0.1989,-0.1989,-0.1975,-0.1972,0,0,0,0,0,0,0,0,0,0,-0.1963,-0.1954,-0.1963,-0.1963,-0.1977,-0.1989,-0.1989,-0.1972,-0.1972,-0.1963,0,-0.1964,0,-0.1975,-0.1974,-0.1974,0,0,0,-0.197,-0.1954,-0.1963,-0.1963,-0.1977,-0.1989,-0.1981,-0.1972,-0.1972,-0.1963,-0.1964,-0.1964,-0.1975,-0.1974,-0.1974,-0.1991,-0.1992,0,0,-0.197,-0.196,-0.1963,-0.1963,-0.1978,-0.1981,-0.1982,-0.1972,-0.1967,-0.1964,-0.1964,-0.1975,-0.1974,-0.1974,-0.1991,-0.1991,0,0,0,-0.1972,-0.1959,-0.1969,-0.1964,-0.1971,-0.1982,-0.1983,-0.1968,-0.1973,-0.1964,-0.1974,-0.1974,-0.1974,-0.1991,-0.1991,-0.2043,0,0,0,-0.1971,-0.1961,-0.1968,-0.1962,-0.1972,-0.1973,-0.1978,-0.1973,-0.1973,-0.1974,-0.1974,-0.1974,-0.199,-0.1991,-0.204,-0.2078,0,0,0,-0.1963,-0.196,-0.1963,-0.1961,-0.1971,-0.1974,-0.1978,-0.1973,-0.1979,-0.1974,-0.1973,-0.199,-0.1991,-0.2039,-0.2074,-0.1979,0,0,0,-0.1952,-0.1967,-0.1962,-0.1985,-0.1971,-0.2006,-0.1978,-0.1996,-0.1996,-0.1974,-0.199,-0.1991,-0.2038,-0.2072,-0.1979,-0.1768,-0.1752,0,0,-0.1971,-0.1969,-0.1986,-0.1983,-0.202,-0.2004,-0.2041,-0.2025,-0.2002,-0.1989,-0.199,-0.2041,-0.2074,-0.1979,-0.181,-0.1792,0,0,0,-0.1993,-0.1997,-0.2011,-0.2027,-0.2049,-0.2071,-0.2056,-0.2052,-0.2046,-0.2006,-0.2041,-0.2061,-0.1998,-0.1871,-0.1858,-0.1995,-0.1994,-0.1994,-0.1994,-0.199,-0.2012,-0.204,-0.2065,-0.209,-0.2113,-0.2126,-0.2114,-0.2083,-0.2089,-0.2102,-0.2072,-0.194,-0.1927,-0.2093,-0.2093,-0.2094,-0.2094,-0.2094,-0.2004,-0.2018,-0.2054,-0.2088,-0.2125,-0.2156,-0.2186,-0.2175,-0.2147,-0.2153,-0.2086,-0.1934,-0.1914,-0.2098,-0.2097,-0.2097,-0.2096,-0.2096,-0.2096,-0.1979,-0.1994,-0.202,-0.2086,-0.2144,-0.2191,-0.2189,-0.2232,-0.2183,-0.2171,-0.192,-0.1916,-0.2061,-0.209,-0.2089,-0.2089,-0.2089,-0.2089,-0.2089,-0.1942,-0.1976,-0.2013,-0.2092,-0.2126,-0.2168,-0.2194,-0.2129,-0.2006,-0.1959,-0.1955,-0.2068,-0.2069,-0.2058,-0.2085,-0.2086,-0.2086,-0.2087,-0.2087,-0.1924,-0.1959,-0.1967,-0.2002,-0.2034,-0.198,-0.2046,-0.1834,-0.1759,-0.164,-0.179,-0.1798,-0.1739,-0.1747,-0.1727,-0.1667,-0.1667,-0.1667,-0.1667,-0.1923,-0.1942,-0.1867,-0.1825,-0.1818,-0.1837,-0.1587,-0.1431,-0.1398,-0.1385,-0.1398,-0.1376,-0.1397,-0.1319,-0.1337,-0.131,-0.114,-0.114,-0.1139,-0.1942,-0.1879,-0.1754,-0.1655,-0.1643,-0.1583,-0.1337,-0.0981,-0.0872,-0.1126,-0.1387,-0.1616,-0.1617,-0.1638,-0.1546,-0.1564,-0.1531,0,0]},{"header":{"parameterUnit":"m.s-1","parameterCategory":2,"la1":30.2992,"la2":30.254,"lo1":-89.0895,"lo2":-89.0443,"dy":0.0025,"dx":0.0025,"nx":19,"ny":19,"refTime":"2026-05-04T21:00:00:Z","depth":"2","parameterNumber":3,"parameterNumberName":"V-component_of_CURRENTS"},"data":[0,0,0,-0.0394,-0.0393,-0.0339,-0.0339,-0.0229,-0.0228,0,0,0,0,0,0,0,0,0,0,0,-0.0413,-0.0412,-0.0394,-0.0393,-0.0339,-0.0339,-0.0229,-0.0228,0,0,0,0,0,0,0,0,0,0,0,-0.0413,-0.0412,-0.0412,-0.0393,-0.0339,-0.0339,-0.0229,-0.0278,0,0,0,0,0,0,0,0,0,0,-0.0334,-0.0365,-0.0412,-0.0412,-0.0393,-0.0339,-0.0339,-0.028,-0.0275,-0.0245,0,-0.0244,0,-0.0237,-0.0221,-0.022,0,0,0,-0.0382,-0.037,-0.0353,-0.0412,-0.0392,-0.034,-0.036,-0.0277,-0.0271,-0.0237,-0.0243,-0.0239,-0.0235,-0.022,-0.0219,-0.0132,-0.0131,0,0,-0.0385,-0.04,-0.0358,-0.035,-0.0387,-0.0362,-0.0359,-0.0274,-0.0271,-0.0242,-0.0236,-0.0233,-0.0219,-0.0218,-0.0132,-0.0132,0,0,0,-0.0401,-0.0403,-0.0389,-0.0354,-0.0349,-0.0361,-0.0357,-0.0275,-0.027,-0.0235,-0.0232,-0.0219,-0.0217,-0.0132,-0.0132,-0.0187,0,0,0,-0.0402,-0.0412,-0.039,-0.0398,-0.0351,-0.0318,-0.036,-0.0276,-0.0266,-0.0233,-0.0219,-0.0216,-0.0132,-0.0132,-0.0186,-0.0166,0,0,0,-0.0413,-0.0414,-0.041,-0.0399,-0.0381,-0.0319,-0.0309,-0.0273,-0.0264,-0.022,-0.0216,-0.0132,-0.0132,-0.0185,-0.0166,-0.0015,0,0,0,-0.0426,-0.0449,-0.041,-0.0432,-0.0381,-0.0367,-0.031,-0.0291,-0.0262,-0.0218,-0.0132,-0.0132,-0.0185,-0.0165,-0.0018,-0.0091,-0.0086,0,0,-0.0468,-0.0454,-0.0468,-0.0433,-0.0443,-0.0373,-0.036,-0.0297,-0.024,-0.0155,-0.0153,-0.0186,-0.0165,-0.0016,-0.0071,-0.0067,0,0,0,-0.049,-0.0499,-0.0496,-0.0489,-0.0459,-0.0408,-0.0349,-0.0299,-0.0221,-0.0221,-0.0164,-0.0147,-0.0051,-0.01,-0.0097,-0.013,-0.013,-0.013,-0.013,-0.0559,-0.0542,-0.0562,-0.0533,-0.051,-0.0429,-0.0369,-0.028,-0.0249,-0.0214,-0.0178,-0.008,-0.014,-0.0136,-0.0183,-0.0183,-0.0184,-0.0184,-0.0184,-0.0624,-0.0637,-0.06,-0.0615,-0.0547,-0.0514,-0.0374,-0.0322,-0.0156,-0.0187,-0.009,-0.0141,-0.0136,-0.0188,-0.0187,-0.0187,-0.0186,-0.0186,-0.0186,-0.0669,-0.0675,-0.0673,-0.0668,-0.0621,-0.0538,-0.0375,-0.0277,-0.0167,-0.0097,-0.0026,-0.0027,-0.0045,-0.0015,-0.0014,-0.0013,-0.0013,-0.0012,-0.0012,-0.072,-0.0717,-0.0698,-0.0709,-0.0649,-0.0543,-0.0341,-0.0208,-0.0073,-0.0035,-0.0035,-0.0019,-0.0024,-0.003,-0.0001,-0.0003,-0.0004,-0.0005,-0.0006,-0.0779,-0.0762,-0.0713,-0.066,-0.0526,-0.0513,-0.0299,-0.0132,0.0055,0.0092,0.0037,0.0032,0.0084,0.0079,0.0079,0.0136,0.0136,0.0136,0.0136,-0.0801,-0.0803,-0.0676,-0.0537,-0.0431,-0.0435,-0.0404,-0.0299,-0.0106,-0.0044,-0.0036,-0.0173,-0.0175,-0.0142,-0.0142,-0.0149,-0.0151,-0.0152,-0.0152,-0.0817,-0.0752,-0.0663,-0.0523,-0.0384,-0.0432,-0.0658,-0.0579,-0.0243,-0.0166,-0.0108,0.0121,-0.0067,-0.0074,-0.0014,-0.0018,-0.0025,0,0]}],[{"header":{"parameterUnit":"m.s-1","parameterCategory":2,"la1":30.2992,"la2":30.254,"lo1":-89.0895,"lo2":-89.0443,"dy":0.0025,"dx":0.0025,"nx":19,"ny":19,"refTime":"2026-05-04T21:00:00:Z","depth":"4","parameterNumber":2,"parameterNumberName":"U-component_of_CURRENTS"},"data":[0,0,0,-0.1498,-0.15,-0.1607,-0.1608,-0.1652,-0.1652,0,0,0,0,0,0,0,0,0,0,0,-0.1463,-0.1464,-0.1498,-0.15,-0.1607,-0.1608,-0.1652,-0.1652,0,0,0,0,0,0,0,0,0,0,0,-0.1462,-0.1463,-0.1465,-0.1501,-0.1607,-0.1608,-0.1652,-0.1594,0,0,0,0,0,0,0,0,0,0,-0.1501,-0.1486,-0.1463,-0.1465,-0.1501,-0.1607,-0.1608,-0.1592,-0.1597,-0.1578,0,-0.1604,0,-0.1628,-0.1654,-0.1654,0,0,0,-0.1498,-0.1481,-0.1508,-0.1465,-0.1503,-0.1607,-0.1558,-0.1596,-0.1602,-0.1585,-0.1605,-0.1608,-0.1629,-0.1654,-0.1654,-0.1692,-0.1692,0,0,-0.1492,-0.1481,-0.1504,-0.1512,-0.154,-0.1555,-0.1562,-0.16,-0.161,-0.1605,-0.1609,-0.163,-0.1654,-0.1654,-0.1692,-0.1692,0,0,0,-0.1477,-0.1477,-0.1504,-0.1509,-0.1536,-0.1558,-0.1566,-0.1608,-0.1618,-0.161,-0.163,-0.1654,-0.1654,-0.1692,-0.1692,-0.1713,0,0,0,-0.1473,-0.1468,-0.1502,-0.1496,-0.1536,-0.1587,-0.1573,-0.1615,-0.1621,-0.163,-0.1654,-0.1654,-0.1691,-0.1692,-0.1712,-0.1686,0,0,0,-0.1456,-0.1466,-0.1481,-0.1495,-0.1542,-0.1587,-0.1599,-0.1617,-0.1632,-0.1654,-0.1654,-0.1691,-0.1692,-0.1711,-0.1685,-0.1623,0,0,0,-0.1436,-0.1462,-0.1482,-0.1519,-0.1541,-0.1603,-0.16,-0.1649,-0.1671,-0.1654,-0.1691,-0.1692,-0.171,-0.1685,-0.1624,-0.1375,0,0,0,-0.1452,-0.1464,-0.1485,-0.1505,-0.1561,-0.1588,-0.1644,-0.1673,-0.1671,-0.167,-0.1672,-0.1712,-0.1685,-0.1623,-0.142,0,0,0,0,-0.1479,-0.1494,-0.1516,-0.1557,-0.1603,-0.1642,-0.1684,-0.1693,-0.1714,-0.1689,-0.1721,-0.1702,-0.1662,-0.1521,-0.1695,-0.1695,-0.1695,-0.1695,-0.1695,-0.1468,-0.15,-0.1539,-0.1586,-0.1626,-0.1686,-0.1707,-0.1724,-0.1735,-0.1749,-0.1727,-0.1702,-0.1558,-0.1755,-0.1755,-0.1755,-0.1755,-0.1755,-0.1755,-0.1473,-0.1482,-0.1543,-0.1593,-0.1643,-0.1692,-0.1727,-0.1742,-0.1725,-0.1753,-0.1713,-0.1565,-0.1757,-0.1757,-0.1757,-0.1756,-0.1756,-0.1756,-0.1756,-0.1438,-0.1443,-0.1502,-0.1555,-0.161,-0.1669,-0.1607,-0.167,-0.1712,-0.1696,-0.1494,-0.1683,-0.1667,-0.1667,-0.1667,-0.1666,-0.1666,-0.1666,-0.1666,-0.1359,-0.1417,-0.14,-0.1494,-0.1486,-0.1491,-0.1518,-0.1472,-0.1544,-0.1455,-0.1675,-0.167,-0.1673,-0.166,-0.166,-0.1661,-0.1662,-0.1662,-0.1663,-0.1237,-0.1278,-0.1218,-0.1206,-0.1192,-0.1203,-0.1271,-0.1198,-0.1133,-0.1095,-0.1309,-0.1328,-0.1274,-0.1286,-0.1258,-0.1138,-0.1134,-0.1131,0,-0.1106,-0.1145,-0.0989,-0.0895,-0.0838,-0.0971,-0.0823,-0.0843,-0.0953,-0.0946,-0.1146,-0.1391,-0.1403,-0.1348,-0.1353,-0.132,0,0,0,-0.0951,-0.093,-0.0757,-0.073,-0.066,-0.0682,-0.0775,-0.0722,-0.0985,-0.084,-0.1048,-0.107,-0.1357,-0.1644,-0.1605,-0.1608,-0.1584,0,0]},{"header":{"parameterUnit":"m.s-1","parameterCategory":2,"la1":30.2992,"la2":30.254,"lo1":-89.0895,"lo2":-89.0443,"dy":0.0025,"dx":0.0025,"nx":19,"ny":19,"refTime":"2026-05-04T21:00:00:Z","depth":"4","parameterNumber":3,"parameterNumberName":"V-component_of_CURRENTS"},"data":[0,0,0,-0.0334,-0.0334,-0.0309,-0.0309,-0.0238,-0.0237,0,0,0,0,0,0,0,0,0,0,0,-0.0343,-0.0343,-0.0334,-0.0334,-0.0309,-0.0309,-0.0238,-0.0237,0,0,0,0,0,0,0,0,0,0,0,-0.0343,-0.0343,-0.0343,-0.0334,-0.031,-0.0309,-0.0238,-0.0264,0,0,0,0,0,0,0,0,0,0,-0.0292,-0.0314,-0.0343,-0.0343,-0.0333,-0.031,-0.0309,-0.0266,-0.0263,-0.024,0,-0.0243,0,-0.0241,-0.0232,-0.0232,0,0,0,-0.0325,-0.0317,-0.0307,-0.0343,-0.0333,-0.031,-0.0318,-0.0265,-0.0261,-0.0235,-0.0242,-0.024,-0.0239,-0.0232,-0.0231,-0.0171,-0.017,0,0,-0.0327,-0.0338,-0.031,-0.0305,-0.0335,-0.0319,-0.0317,-0.0263,-0.0263,-0.0242,-0.0238,-0.0238,-0.0231,-0.0231,-0.0171,-0.017,0,0,0,-0.0336,-0.0339,-0.0331,-0.0308,-0.0308,-0.0318,-0.0317,-0.0265,-0.0262,-0.0237,-0.0237,-0.0231,-0.023,-0.0171,-0.0171,-0.0255,0,0,0,-0.0336,-0.0345,-0.0332,-0.0338,-0.0309,-0.0293,-0.0321,-0.0266,-0.026,-0.0238,-0.0231,-0.0229,-0.0171,-0.0171,-0.0253,-0.0334,0,0,0,-0.0343,-0.0345,-0.0345,-0.0339,-0.0332,-0.0294,-0.0288,-0.0265,-0.026,-0.0232,-0.0229,-0.0171,-0.0171,-0.0251,-0.0329,-0.0412,0,0,0,-0.0351,-0.0354,-0.0345,-0.0349,-0.0332,-0.0319,-0.0288,-0.0273,-0.0253,-0.023,-0.0171,-0.0171,-0.0251,-0.0326,-0.0408,-0.039,0,0,0,-0.0357,-0.0355,-0.0357,-0.0348,-0.0359,-0.0321,-0.0327,-0.0288,-0.0237,-0.0185,-0.0184,-0.0254,-0.0329,-0.0412,-0.0372,0,0,0,0,-0.036,-0.0371,-0.0368,-0.0377,-0.0358,-0.0375,-0.0322,-0.0297,-0.0258,-0.0225,-0.0224,-0.0269,-0.0319,-0.0294,-0.0169,-0.0169,-0.0169,-0.0169,-0.0169,-0.0393,-0.0392,-0.042,-0.0423,-0.042,-0.0401,-0.0407,-0.0362,-0.0284,-0.0274,-0.0314,-0.0408,-0.0377,-0.0262,-0.0263,-0.0263,-0.0263,-0.0263,-0.0264,-0.0445,-0.0481,-0.0488,-0.0517,-0.0526,-0.0529,-0.0494,-0.0457,-0.0456,-0.0361,-0.0404,-0.0353,-0.0271,-0.027,-0.0269,-0.0268,-0.0267,-0.0267,-0.0266,-0.0493,-0.052,-0.0536,-0.0611,-0.0658,-0.0642,-0.072,-0.0658,-0.0566,-0.0601,-0.0571,-0.0488,-0.0512,-0.0611,-0.0612,-0.0612,-0.0613,-0.0614,-0.0614,-0.0554,-0.0574,-0.0674,-0.0723,-0.0798,-0.0857,-0.0863,-0.0875,-0.0791,-0.07,-0.0637,-0.0526,-0.0515,-0.0531,-0.0625,-0.0623,-0.0622,-0.0621,-0.062,-0.0662,-0.0673,-0.0814,-0.0907,-0.1052,-0.1069,-0.1082,-0.1012,-0.1035,-0.0976,-0.075,-0.074,-0.0727,-0.0711,-0.0734,-0.0891,-0.0892,-0.0892,0,-0.0754,-0.0762,-0.0956,-0.1109,-0.1222,-0.1205,-0.1208,-0.1166,-0.1031,-0.0977,-0.1054,-0.0802,-0.0791,-0.0777,-0.0763,-0.0791,0,0,0,-0.0875,-0.0903,-0.1041,-0.1144,-0.1275,-0.122,-0.1186,-0.1136,-0.1022,-0.1024,-0.0897,-0.0896,-0.0828,-0.0658,-0.0615,-0.0601,-0.0626,0,0]}]]